TimeCDT,TemperatureF,Dew PointF,Humidity,Sea Level PressureIn,VisibilityMPH,Wind Direction,Wind SpeedMPH,Gust SpeedMPH,PrecipitationIn,Events,Conditions,WindDirDegrees,DateUTC
12:52 AM,39.9,30.9,70,29.73,10.0,SSE,5.8,-,N/A,,Clear,160,2012-10-13 05:52:00
1:52 AM,39.2,32.0,75,29.69,10.0,SSE,4.6,-,N/A,,Clear,150,2012-10-13 06:52:00
2:52 AM,35.6,30.2,81,29.66,10.0,SE,8.1,-,N/A,,Clear,130,2012-10-13 07:52:00
3:52 AM,35.6,32.0,87,29.65,10.0,Calm,Calm,-,N/A,,Clear,0,2012-10-13 08:52:00
4:52 AM,33.8,30.2,87,29.65,10.0,East,3.5,-,N/A,,Clear,100,2012-10-13 09:52:00
5:52 AM,30.9,28.0,89,29.68,10.0,Calm,Calm,-,N/A,,Clear,0,2012-10-13 10:52:00
6:52 AM,28.9,27.0,92,29.70,10.0,Calm,Calm,-,N/A,,Clear,0,2012-10-13 11:52:00
7:52 AM,30.9,28.0,89,29.73,10.0,Calm,Calm,-,N/A,,Clear,0,2012-10-13 12:52:00
9:52 AM,42.1,33.1,70,29.75,10.0,WNW,5.8,-,N/A,,Clear,300,2012-10-13 14:52:00
10:52 AM,50.0,35.1,57,29.74,10.0,WNW,6.9,-,N/A,,Clear,300,2012-10-13 15:52:00
11:52 AM,59.0,37.9,46,29.74,10.0,NW,4.6,-,N/A,,Clear,310,2012-10-13 16:52:00
12:52 PM,66.0,37.9,36,29.73,10.0,NW,15.0,20.7,N/A,,Clear,320,2012-10-13 17:52:00
1:52 PM,68.0,37.0,32,29.74,10.0,NW,15.0,-,N/A,,Clear,320,2012-10-13 18:52:00
2:52 PM,69.1,36.0,30,29.73,10.0,NW,16.1,25.3,N/A,,Clear,310,2012-10-13 19:52:00
3:52 PM,69.1,36.0,30,29.76,10.0,NW,17.3,27.6,N/A,,Clear,320,2012-10-13 20:52:00
4:52 PM,66.9,36.0,32,29.79,10.0,NW,15.0,23.0,N/A,,Clear,320,2012-10-13 21:52:00
5:52 PM,62.1,37.0,39,29.83,10.0,NNW,15.0,20.7,N/A,,Clear,340,2012-10-13 22:52:00
6:52 PM,57.2,37.4,48,29.81,10.0,North,4.6,-,N/A,,Clear,350,2012-10-13 23:52:00
7:52 PM,55.9,37.0,49,29.88,10.0,NW,6.9,-,N/A,,Clear,320,2012-10-14 00:52:00
8:52 PM,53.6,37.4,54,29.88,10.0,WNW,3.5,-,N/A,,Clear,300,2012-10-14 01:52:00
9:52 PM,53.1,37.0,55,29.92,10.0,NNW,8.1,-,N/A,,Partly Cloudy,340,2012-10-14 02:52:00
10:52 PM,48.9,37.0,64,29.94,10.0,WNW,3.5,-,N/A,,Clear,300,2012-10-14 03:52:00
11:52 PM,46.4,37.4,71,29.94,10.0,Calm,Calm,-,N/A,,Scattered Clouds,0,2012-10-14 04:52:00